Weather History for KPSP - November, 2011

Change the Weather History Date:

Saturday, November 26, 2011

  Actual Average Record
Temperature  
Mean Temperature 68 °F 60 °F  
Max Temperature 84 °F 72 °F 92 °F (1954)
Min Temperature 52 °F 48 °F 31 °F (1952)
Degree Days  
Heating Degree Days 0 6  
Month to date heating degree days 108 67  
Since 1 July heating degree days 108 71  
Cooling Degree Days 3 1  
Month to date cooling degree days 17 74  
Year to date cooling degree days 4150 4136  
Growing Degree Days 18 (Base 50)    
Moisture  
Dew Point 22 °F    
Average Humidity 30    
Maximum Humidity 51    
Minimum Humidity 8    
Precipitation  
Precipitation 0.00 in 0.03 in 0.36 in (2008)
Month to date precipitation 0.42 0.44  
Year to date precipitation 2.81 4.77  
Since 1 July precipitation 1.34 1.83  
Snow  
Snow 0.00 in - - ()
Month to date snowfall 0.0  
Year to date snowfall 0.0  
Since 1 July snowfall 0.0  
Snow Depth 0.00 in    
Sea Level Pressure  
Sea Level Pressure 30.29 in    
Wind  
Wind Speed 5 mph (NW)    
Max Wind Speed 16 mph    
Max Gust Speed 20 mph    
Visibility 10 miles    
Events      
T = Trace of Precipitation, MM = Missing Value Source: NWS Daily Summary

Daily Weather History Graph

Daily Weather History Graph

Search for Another Location

Airport or City:

Trip Planner

Search our weather history database for the weather conditions in past years. The results will help you decide how hot, cold, wet, or windy it might be!

Date:

Astronomy

Nov. 26, 2011 Rise Set
Actual Time 6:28 AM PST 4:38 PM PST
Civil Twilight 6:01 AM PST 5:05 PM PST
Nautical Twilight 5:30 AM PST 5:35 PM PST
Astronomical Twilight 5:00 AM PST 6:05 PM PST
Moon 8:00 AM PST (11/26) 6:16 PM PST (11/26)
Length of Visible Light 11h 04m
Length of Day
10h 09m
Waxing Crescent, 4% of the Moon is Illuminated
Nov 26
Waxing Crescent
Dec 2
First Quarter
Dec 10
Full
Dec 17
Last Quarter
Dec 24
New

Hourly Weather History & Observations

Time (PST) Temp. Dew Point Humidity Pressure Visibility Wind Dir Wind Speed Gust Speed Precip Events Conditions
12:53 AM 54.0 °F 35.1 °F 49% 30.22 in 10.0 mi NNW 5.8 mph - N/A   Clear
1:53 AM 53.1 °F 36.0 °F 52% 30.25 in 10.0 mi Calm Calm - N/A   Clear
2:53 AM 55.0 °F 33.1 °F 43% 30.25 in 10.0 mi Variable 6.9 mph - N/A   Clear
4:53 AM 53.1 °F 30.0 °F 41% 30.26 in 10.0 mi Calm Calm - N/A   Clear
5:53 AM 57.9 °F 24.1 °F 27% 30.29 in 10.0 mi NW 6.9 mph - N/A   Clear
6:53 AM 59.0 °F 24.8 °F 27% 30.30 in 10.0 mi NW 5.8 mph - N/A   Clear
7:53 AM 71.1 °F 19.9 °F 14% 30.32 in 10.0 mi NW 12.7 mph - N/A   Clear
8:53 AM 75.9 °F 19.9 °F 12% 30.33 in 10.0 mi NNW 11.5 mph - N/A   Clear
9:53 AM 79.0 °F 19.0 °F 11% 30.33 in 10.0 mi North 11.5 mph - N/A   Clear
10:53 AM 81.0 °F 19.0 °F 10% 30.31 in 10.0 mi NNE 6.9 mph - N/A   Clear
11:53 AM 81.0 °F 17.1 °F 9% 30.28 in 10.0 mi Calm Calm - N/A   Clear
12:53 PM 82.0 °F 18.0 °F 9% 30.25 in 10.0 mi Calm Calm - N/A   Clear
1:53 PM 84.0 °F 18.0 °F 9% 30.23 in 10.0 mi Calm Calm - N/A   Clear
2:53 PM 84.0 °F 16.0 °F 8% 30.23 in 10.0 mi Variable 4.6 mph - N/A   Clear
3:53 PM 81.0 °F 16.0 °F 9% 30.25 in 10.0 mi NNW 5.8 mph - N/A   Clear
4:53 PM 75.0 °F 18.0 °F 12% 30.27 in 10.0 mi WNW 6.9 mph - N/A   Clear
5:53 PM 73.9 °F 16.0 °F 11% 30.29 in 10.0 mi NW 5.8 mph - N/A   Clear
6:53 PM 69.1 °F 21.0 °F 16% 30.31 in 10.0 mi WSW 5.8 mph - N/A   Clear
7:53 PM 68.0 °F 19.9 °F 16% 30.32 in 10.0 mi West 6.9 mph - N/A   Clear
8:53 PM 66.9 °F 19.9 °F 17% 30.32 in 10.0 mi WSW 5.8 mph - N/A   Clear
9:53 PM 66.0 °F 19.9 °F 17% 30.32 in 10.0 mi WSW 6.9 mph - N/A   Clear
10:53 PM 66.0 °F 19.0 °F 17% 30.33 in 10.0 mi West 4.6 mph - N/A   Clear
11:53 PM 63.0 °F 19.9 °F 19% 30.33 in 10.0 mi NW 5.8 mph - N/A   Clear